Location: ??????
(38.3184°N, 23.6932°E)
Time: 02:11:03
(UTC+00:00)

IRIS - Pass Details

Date: 16 October 2021
Orbit: 279 x 2615 km, 41.2° (Epoch: 04 December)

Event Time Altitude Azimuth Distance (km) Brightness Sun altitude
Rises 16:17:09 0° 286° (WNW) 2,011 9.2 -6.9°
Reaches altitude 10° 16:19:08 10° 292° (WNW) 1,118 7.5 -7.3°
Maximum altitude 16:21:24 50° 10° (N) 365 3.8 -7.7°
Enters shadow 16:23:33 12° 88° (E) 1,067 5.6 -8.2°
